• In Uzbekistan
  • List of Countries
  • For 7 days
  • Water Temperature
  • Satellite Maps
  • Weather Map
  • Weather Widgets
  • user-avatar
    Login

    Hourly Weather Solwezi

    Today, 18 July, Wednesday

    Time Temperature Precipitation Wind Pressure Humidity
    00:00 +36°C° 0.3 mm 5 mps 713 mmHg 38%
    01:00 +35°C° 0.3 mm 5 mps 713 mmHg 41%
    02:00 +34°C° 0 mm 5 mps 713 mmHg 45%
    03:00 +33°C° 0 mm 5 mps 713 mmHg 47%
    04:00 +33°C° 0 mm 4 mps 713 mmHg 50%
    05:00 +32°C° 0 mm 4 mps 713 mmHg 52%
    06:00 +32°C° 0.1 mm 5 mps 713 mmHg 53%
    07:00 +32°C° 0.1 mm 6 mps 714 mmHg 53%
    08:00 +32°C° 0.1 mm 6 mps 714 mmHg 54%
    09:00 +33°C° 0 mm 7 mps 714 mmHg 50%
    10:00 +35°C° 0 mm 7 mps 714 mmHg 45%
    11:00 +36°C° 0 mm 7 mps 714 mmHg 41%
    12:00 +38°C° 0 mm 6 mps 713 mmHg 37%
    13:00 +39°C° 0 mm 6 mps 713 mmHg 34%
    14:00 +40°C° 0 mm 5 mps 713 mmHg 30%
    15:00 +41°C° 0 mm 4 mps 712 mmHg 28%
    16:00 +40°C° 0 mm 3 mps 712 mmHg 27%
    17:00 +40°C° 0 mm 2 mps 711 mmHg 25%
    18:00 +39°C° 0 mm 2 mps 711 mmHg 26%
    19:00 +39°C° 0 mm 3 mps 711 mmHg 26%
    20:00 +40°C° 0 mm 4 mps 711 mmHg 27%
    21:00 +38°C° 0 mm 4 mps 711 mmHg 31%
    22:00 +37°C° 0 mm 5 mps 712 mmHg 35%
    23:00 +35°C° 0 mm 6 mps 712 mmHg 39%

    Tomorrow, 19 July, Thursday

    Time Temperature Precipitation Wind Pressure Humidity
    00:00 +35°C° 0 mm 6 mps 712 mmHg 42%
    01:00 +34°C° 0 mm 6 mps 711 mmHg 46%
    02:00 +33°C° 0 mm 6 mps 711 mmHg 50%
    03:00 +32°C° 0 mm 6 mps 711 mmHg 53%
    04:00 +32°C° 0 mm 7 mps 711 mmHg 57%
    05:00 +30°C° 0 mm 7 mps 711 mmHg 61%
    06:00 +30°C° 0 mm 7 mps 712 mmHg 62%
    07:00 +30°C° 0 mm 7 mps 712 mmHg 62%
    08:00 +30°C° 0 mm 7 mps 712 mmHg 63%
    09:00 +32°C° 0 mm 7 mps 713 mmHg 57%
    10:00 +34°C° 0 mm 8 mps 713 mmHg 51%
    11:00 +35°C° 0 mm 8 mps 713 mmHg 45%
    12:00 +38°C° 0 mm 8 mps 713 mmHg 41%
    13:00 +39°C° 0 mm 7 mps 712 mmHg 37%
    14:00 +40°C° 0 mm 7 mps 712 mmHg 33%
    15:00 +40°C° 0 mm 6 mps 711 mmHg 31%
    16:00 +40°C° 0 mm 6 mps 711 mmHg 29%
    17:00 +41°C° 0 mm 5 mps 710 mmHg 27%
    18:00 +40°C° 0 mm 5 mps 710 mmHg 28%
    19:00 +39°C° 0 mm 5 mps 711 mmHg 30%
    20:00 +37°C° 0 mm 4 mps 711 mmHg 31%
    21:00 +37°C° 0 mm 4 mps 712 mmHg 33%
    22:00 +36°C° 0 mm 4 mps 712 mmHg 35%
    23:00 +36°C° 0 mm 4 mps 712 mmHg 37%

    Day after tomorrow, 20 July, Friday

    Time Temperature Precipitation Wind Pressure Humidity
    00:00 +35°C° 0 mm 6 mps 712 mmHg 41%
    01:00 +34°C° 0 mm 7 mps 712 mmHg 45%
    02:00 +33°C° 0 mm 8 mps 712 mmHg 49%
    03:00 +32°C° 0.1 mm 8 mps 712 mmHg 53%
    04:00 +30°C° 0.1 mm 7 mps 712 mmHg 57%
    05:00 +29°C° 0.1 mm 6 mps 712 mmHg 61%
    06:00 +29°C° 0 mm 7 mps 712 mmHg 60%
    07:00 +29°C° 0 mm 7 mps 713 mmHg 59%
    08:00 +30°C° 0 mm 7 mps 713 mmHg 58%
    09:00 +32°C° 0 mm 7 mps 714 mmHg 54%
    10:00 +34°C° 0 mm 7 mps 714 mmHg 49%
    11:00 +35°C° 0 mm 7 mps 714 mmHg 44%
    12:00 +36°C° 0 mm 7 mps 714 mmHg 40%
    13:00 +39°C° 0 mm 7 mps 713 mmHg 37%
    14:00 +40°C° 0 mm 7 mps 713 mmHg 33%
    15:00 +40°C° 0 mm 6 mps 712 mmHg 33%
    16:00 +40°C° 0 mm 6 mps 712 mmHg 33%
    17:00 +39°C° 0 mm 6 mps 711 mmHg 32%
    18:00 +39°C° 0 mm 5 mps 712 mmHg 34%
    19:00 +37°C° 0 mm 5 mps 712 mmHg 35%
    20:00 +37°C° 0 mm 4 mps 713 mmHg 36%
    21:00 +36°C° 0 mm 5 mps 713 mmHg 38%
    22:00 +36°C° 0 mm 5 mps 713 mmHg 40%
    23:00 +35°C° 0 mm 5 mps 713 mmHg 42%

    21 July, Saturday

    Time Temperature Precipitation Wind Pressure Humidity
    00:00 +34°C° 0.4 mm 5 mps 713 mmHg 45%
    01:00 +34°C° 0.4 mm 5 mps 713 mmHg 48%
    02:00 +33°C° 0.4 mm 5 mps 713 mmHg 51%
    03:00 +32°C° 0.4 mm 5 mps 713 mmHg 55%
    04:00 +30°C° 0.4 mm 5 mps 713 mmHg 59%
    05:00 +29°C° 0.4 mm 6 mps 713 mmHg 62%
    06:00 +29°C° 0.1 mm 6 mps 713 mmHg 62%
    07:00 +30°C° 0.1 mm 6 mps 714 mmHg 62%
    08:00 +30°C° 0.1 mm 6 mps 714 mmHg 61%
    09:00 +32°C° 0 mm 6 mps 714 mmHg 55%
    10:00 +34°C° 0 mm 6 mps 714 mmHg 49%
    11:00 +35°C° 0 mm 6 mps 715 mmHg 43%
    12:00 +36°C° 0 mm 5 mps 714 mmHg 39%
    13:00 +39°C° 0 mm 5 mps 713 mmHg 35%
    14:00 +40°C° 0 mm 4 mps 713 mmHg 31%
    15:00 +40°C° 0 mm 4 mps 712 mmHg 29%
    16:00 +39°C° 0 mm 3 mps 712 mmHg 28%
    17:00 +39°C° 0 mm 3 mps 712 mmHg 26%
    18:00 +39°C° 0.1 mm 3 mps 712 mmHg 27%
    19:00 +38°C° 0.1 mm 2 mps 712 mmHg 29%
    20:00 +37°C° 0.1 mm 2 mps 713 mmHg 30%
    21:00 +37°C° 0 mm 2 mps 713 mmHg 32%
    22:00 +36°C° 0 mm 3 mps 713 mmHg 34%
    23:00 +35°C° 0 mm 3 mps 713 mmHg 37%

    22 July, Sunday

    Time Temperature Precipitation Wind Pressure Humidity
    00:00 +35°C° 0 mm 4 mps 712 mmHg 40%
    01:00 +34°C° 0 mm 4 mps 712 mmHg 43%
    02:00 +34°C° 0 mm 5 mps 712 mmHg 46%
    03:00 +33°C° 0 mm 4 mps 712 mmHg 47%
    04:00 +33°C° 0 mm 4 mps 712 mmHg 49%
    05:00 +32°C° 0 mm 4 mps 712 mmHg 51%
    06:00 +33°C° 0 mm 5 mps 712 mmHg 50%
    07:00 +33°C° 0 mm 5 mps 713 mmHg 49%
    08:00 +33°C° 0 mm 6 mps 713 mmHg 48%
    09:00 +35°C° 0 mm 6 mps 713 mmHg 44%
    10:00 +36°C° 0 mm 6 mps 713 mmHg 40%
    11:00 +39°C° 0 mm 7 mps 714 mmHg 36%
    12:00 +40°C° 0 mm 6 mps 713 mmHg 33%
    13:00 +41°C° 0 mm 6 mps 712 mmHg 30%
    14:00 +42°C° 0 mm 5 mps 712 mmHg 27%
    15:00 +42°C° 0 mm 5 mps 711 mmHg 27%
    16:00 +41°C° 0 mm 4 mps 711 mmHg 27%
    17:00 +41°C° 0 mm 4 mps 711 mmHg 27%
    18:00 +40°C° 0.2 mm 5 mps 711 mmHg 31%
    19:00 +37°C° 0.2 mm 5 mps 711 mmHg 35%
    20:00 +36°C° 0.2 mm 6 mps 711 mmHg 39%
    21:00 +35°C° 0.4 mm 6 mps 711 mmHg 45%
    22:00 +34°C° 0.4 mm 7 mps 712 mmHg 51%
    23:00 +32°C° 0.4 mm 7 mps 712 mmHg 57%

    23 July, Monday

    Time Temperature Precipitation Wind Pressure Humidity
    00:00 +32°C° 0 mm 7 mps 712 mmHg 57%
    01:00 +30°C° 0 mm 7 mps 712 mmHg 58%
    02:00 +30°C° 0 mm 7 mps 712 mmHg 59%
    03:00 +30°C° 0 mm 7 mps 712 mmHg 59%
    04:00 +29°C° 0 mm 6 mps 712 mmHg 59%
    05:00 +29°C° 0 mm 6 mps 712 mmHg 60%
    06:00 +29°C° 0 mm 6 mps 712 mmHg 61%
    07:00 +29°C° 0 mm 5 mps 713 mmHg 62%
    08:00 +29°C° 0 mm 5 mps 713 mmHg 63%
    09:00 +32°C° 0 mm 6 mps 713 mmHg 56%
    10:00 +34°C° 0 mm 6 mps 713 mmHg 49%
    11:00 +35°C° 0 mm 7 mps 713 mmHg 42%
    12:00 +36°C° 0 mm 7 mps 713 mmHg 40%
    13:00 +38°C° 0 mm 8 mps 712 mmHg 38%
    14:00 +39°C° 0 mm 8 mps 712 mmHg 36%
    15:00 +39°C° 0 mm 8 mps 711 mmHg 37%
    16:00 +39°C° 0 mm 8 mps 711 mmHg 37%
    17:00 +38°C° 0 mm 7 mps 711 mmHg 38%
    18:00 +36°C° 0.2 mm 7 mps 711 mmHg 41%
    19:00 +36°C° 0.2 mm 7 mps 711 mmHg 44%
    20:00 +35°C° 0.2 mm 7 mps 712 mmHg 47%
    21:00 +34°C° 0.3 mm 7 mps 712 mmHg 50%
    22:00 +33°C° 0.3 mm 7 mps 712 mmHg 53%
    23:00 +32°C° 0.3 mm 7 mps 712 mmHg 56%
    Show more